Location: Monplaisir
(52.0007°N, 11.8755°E)
Time: 01:12:03
(UTC+00:00)

Daily predictions for brighter satellites

Satellite Brightness Start Highest point End
(mag) Time Altitude Azimuth Time Altitude Azimuth Time Altitude Azimuth
STARLINK-1209 2.8 00:00:10 10° WNW 00:03:17 61° SSW 00:06:25 10° ESE
STARLINK-1247 2.7 00:00:49 10° WNW 00:03:57 73° SSW 00:07:04 10° ESE
STARLINK-1227 2.7 00:01:17 10° WNW 00:04:24 73° SSW 00:07:29 10° ESE
STARLINK-1208 3.6 00:00:15 10° W 00:04:25 83° N 00:08:35 10° E
ATLAS CENTAUR R/B 1.5 00:02:25 10° NW 00:04:34 62° NNE 00:08:30 10° ESE
STARLINK-1226 2.7 00:02:09 10° WNW 00:05:15 72° SSW 00:08:22 10° ESE
STARLINK-1215 2.7 00:03:05 10° WNW 00:06:12 72° SSW 00:09:19 10° ESE
STARLINK-1225 3.7 00:02:27 10° W 00:06:37 79° N 00:10:47 10° E
STARLINK-1217 2.7 00:04:51 10° WNW 00:07:58 70° SSW 00:11:04 10° ESE
Nadezhda 2 Rocket 4.4 00:04:33 23° S 00:08:30 85° E 00:14:39 10° N
STARLINK-1229 2.7 00:05:46 10° WNW 00:08:54 70° SSW 00:12:00 10° ESE
STARLINK-1271 3.6 00:05:15 10° WNW 00:09:25 85° N 00:13:35 10° E
STARLINK-1270 2.7 00:06:38 10° WNW 00:09:46 69° SSW 00:12:52 10° ESE
Cosmos 1726 3.8 00:07:01 10° NW 00:09:48 20° W 00:10:54 18° WSW
GEOS 3 Rocket 3.8 00:07:39 21° SSE 00:10:58 50° SW 00:16:07 10° NW
Lacrosse 4 Rocket 4.4 00:07:46 10° NNW 00:10:58 19° NNE 00:14:07 10° ENE
Cosmos 2058 Rocket 3.0 00:06:47 10° NNW 00:11:13 86° W 00:13:46 25° S
STARLINK-1189 2.7 00:08:28 10° WNW 00:11:35 68° SSW 00:14:42 10° ESE
STARLINK-1230 3.7 00:07:26 10° W 00:11:36 78° N 00:15:45 10° E
Meteor 1-29 2.8 00:08:48 10° NNE 00:12:13 86° WNW 00:13:32 35° SSW
STARLINK-1188 2.7 00:09:21 10° WNW 00:12:28 67° SSW 00:15:35 10° ESE
STARLINK-1235 2.8 00:10:04 10° WNW 00:13:07 57° SSW 00:16:10 10° ESE
STARLINK-1187 2.7 00:10:29 10° WNW 00:13:33 61° SSW 00:16:37 10° ESE
Cosmos 2228 3.5 00:09:36 10° NNW 00:13:41 44° W 00:15:32 27° SSW
STARLINK-1154 3.6 00:10:15 10° WNW 00:14:24 86° N 00:18:34 10° ESE
STARLINK-1191 2.7 00:11:51 10° WNW 00:14:55 65° SSW 00:18:00 10° ESE
SJ 16-02 3.2 00:11:08 10° N 00:15:04 30° NE 00:18:59 10° ESE
COSMOS 2455 3.0 00:11:40 24° SSW 00:15:24 66° ESE 00:21:23 10° NE
STARLINK-1221 2.7 00:12:43 10° WNW 00:15:48 64° SSW 00:18:53 10° ESE
STARLINK-1243 3.7 00:12:25 10° W 00:16:35 77° N 00:20:44 10° E
STARLINK-1222 2.7 00:13:36 10° WNW 00:16:41 63° SSW 00:19:45 10° ESE
STARLINK-1214 2.7 00:14:31 10° WNW 00:17:36 63° SSW 00:20:40 10° ESE
Cosmos 1953 4.3 00:15:21 10° NW 00:18:00 17° W 00:19:26 14° WSW
STARLINK-1197 3.6 00:15:13 10° WNW 00:19:23 88° N 00:23:33 10° ESE
Cosmos 1340 Rocket 4.5 00:16:41 10° NW 00:19:44 21° W 00:21:08 18° WSW
SL-14 R/B 3.3 00:18:39 28° S 00:20:35 68° E 00:24:27 10° NNE
STARLINK-1236 3.7 00:17:24 10° W 00:21:34 77° N 00:25:44 10° E
IRAS Rocket 4.3 00:17:53 21° S 00:21:38 66° WSW 00:27:12 10° NNW
Cosmos 1300 2.6 00:19:10 10° NNW 00:23:01 86° WSW 00:25:04 26° S
STARLINK-1198 3.5 00:20:10 10° WNW 00:24:20 89° SW 00:28:30 10° ESE
Okean 1-7 Rocket 3.6 00:22:03 26° S 00:24:34 89° ESE 00:29:07 10° N
Cosmos 1174 3.5 00:23:33 34° SSW 00:24:46 61° SE 00:28:29 10° NE
Cosmos 921 Rocket 3.7 00:23:34 22° SSE 00:25:56 44° ESE 00:30:04 10° NNE
BREEZE M DEB (TANK) 2.5 00:26:49 35° SSE 00:26:49 35° SSE 00:29:18 10° ESE
COSMOS 2487 3.7 00:23:49 10° NW 00:26:42 25° WSW 00:27:18 23° WSW
STARLINK-1199 3.5 00:25:11 10° WNW 00:29:21 87° SSW 00:33:31 10° ESE
STARLINK-1269 3.8 00:27:22 10° W 00:31:32 76° N 00:35:41 10° E
Cosmos 2219 3.5 00:26:16 10° NNW 00:31:58 70° ENE 00:37:36 10° SE
Cosmos 1626 Rocket 4.2 00:29:36 19° SSE 00:32:29 48° E 00:36:40 10° NNE
STARLINK-1210 3.5 00:30:09 10° WNW 00:34:19 85° SSW 00:38:28 10° ESE
Cosmos 1626 2.1 00:34:31 28° SSW 00:36:22 77° W 00:40:07 10° N
STARLINK-1200 3.8 00:32:22 10° W 00:36:32 76° N 00:40:41 10° E
STARLINK-60 3.6 00:36:26 31° S 00:37:11 37° SSE 00:40:11 10° E
Cosmos 1656 Rocket 4.2 00:33:51 16° SW 00:38:19 53° NW 00:43:47 10° NNE
STARLINK-1219 3.5 00:35:08 10° WNW 00:39:18 82° SSW 00:43:27 10° ESE
Nadezhda 1 Rocket 4.0 00:34:16 10° N 00:40:26 89° W 00:45:52 14° S
STARLINK-1192 3.8 00:37:21 10° W 00:41:31 76° N 00:45:41 10° E
FALCON 9 R/B 4.1 00:38:25 19° SSW 00:42:44 29° SSE 00:59:06 10° ESE
STARLINK-1211 3.5 00:40:06 10° WNW 00:44:16 79° SSW 00:48:24 10° ESE
STARLINK-1244 3.8 00:42:19 10° W 00:46:30 76° N 00:50:39 10° E
Cosmos 2297 Rocket 2.4 00:41:57 10° NNW 00:47:38 74° ENE 00:53:17 10° SE
MOZ.5/SAFIR/RUBIN 5/SL-8 3.7 00:44:15 18° S 00:47:39 70° WSW 00:52:17 10° NNW
UNK 3.7 00:44:00 15° SSE 00:47:54 89° WSW 00:52:33 10° NNW
Cosmos 220 Rocket 4.5 00:46:16 20° S 00:49:07 54° ESE 00:53:28 10° NNE
STARLINK-1245 3.5 00:45:06 10° WNW 00:49:15 76° SSW 00:53:24 10° ESE
ERBS 4.1 00:46:11 10° WNW 00:49:16 34° N 00:52:22 10° ENE
Cosmos 1812 Rocket 3.7 00:45:56 10° N 00:50:26 75° ENE 00:54:30 12° SSE
CZ-4B R/B 4.3 00:45:53 10° NNE 00:50:49 46° E 00:55:16 13° S
STARLINK-1138 3.8 00:47:19 10° W 00:51:29 77° N 00:55:38 10° E
SL-4 R/B 2.7 00:49:13 20° SW 00:52:16 49° SSE 00:56:49 10° E
STARLINK-1203 3.8 00:49:55 10° W 00:54:08 77° N 00:58:21 10° E
Cosmos 1437 2.5 00:52:48 28° SSW 00:54:12 80° WNW 00:57:14 10° N
STARLINK-1233 3.5 00:50:04 10° WNW 00:54:13 73° SSW 00:58:21 10° ESE
Cosmos 1674 4.5 00:53:21 13° WSW 00:55:32 21° WNW 00:58:27 10° NNW
SL-19 R/B 4.4 00:50:35 10° NNE 00:55:53 65° WNW 01:00:04 18° SW
STARLINK-1143 3.8 00:52:18 10° W 00:56:28 77° N 01:00:38 10° E
STARLINK-1204 3.5 00:55:04 10° WNW 00:59:12 70° SSW 01:03:20 10° ESE
Timation 2 Rocket 4.3 00:53:17 10° NW 00:59:21 46° WSW 01:04:30 13° S
ATLAS CENTAUR R/B 1.4 00:56:56 19° SW 01:00:00 81° NW 01:04:07 10° NE
STARLINK-1241 3.8 00:57:17 10° W 01:01:27 78° N 01:05:36 10° E
SL-16 R/B 2.5 00:56:01 12° S 01:01:45 69° WSW 01:07:57 10° NNW
BREEZE-M R/B 3.8 01:01:07 20° SSW 01:02:58 27° SSE 01:05:36 10° E
NOSS 3-4 (A) 3.7 00:57:31 12° WSW 01:03:06 67° NW 01:09:39 10° NE
NOSS 3-4 (C) 3.7 00:57:37 12° WSW 01:03:12 68° NW 01:09:45 10° NE
STARLINK-1238 3.5 01:00:01 10° WNW 01:04:09 67° SSW 01:08:16 10° ESE
Cosmos 1602 Rocket 3.6 01:01:58 17° S 01:05:12 79° E 01:09:33 10° NNE
Cosmos 1455 2.6 01:01:42 10° N 01:05:27 61° ENE 01:09:09 10° SSE
STARLINK-29 3.8 01:04:34 23° SSW 01:05:52 34° SSE 01:08:48 10° E
STARLINK-1239 3.7 01:02:16 10° W 01:06:25 79° N 01:10:35 10° E
ATLAS 3B R/B 3.3 01:00:39 10° NW 01:06:42 35° WSW 01:12:43 11° S
STARLINK-1201 3.5 01:05:02 10° WNW 01:09:08 64° SSW 01:13:14 10° ESE
BREEZE-M DEB (TANK) 4.1 01:09:30 11° SSE 01:09:36 11° SE 01:10:10 10° SE
IRS-1D 4.4 01:04:51 10° NNE 01:10:02 47° E 01:15:07 10° S
CENTAUR R/B 4.3 01:04:03 10° WNW 01:10:05 23° WSW 01:14:47 15° SSW
STARLINK-1240 3.7 01:07:15 10° W 01:11:25 80° N 01:15:35 10° E
GP-B 3.6 01:07:10 10° N 01:11:36 59° E 01:15:58 10° SSE
Meteor 2-1 Rocket 4.2 01:07:12 10° NNW 01:12:42 70° W 01:18:04 11° S
BREEZE-M DEB (TANK) 1.5 01:12:38 22° SW 01:13:53 40° SSE 01:16:08 10° E
STARLINK-1206 3.6 01:10:00 10° WNW 01:14:06 61° SSW 01:18:11 10° SE
Cosmos-2242 3.5 01:10:47 10° N 01:15:02 59° ENE 01:19:14 10° SSE
STARLINK-1216 3.7 01:12:14 10° W 01:16:24 81° N 01:20:34 10° E
Cosmos 1745 Rocket 4.1 01:12:45 16° SSW 01:17:48 67° WNW 01:23:56 10° N
STARLINK-1205 3.6 01:14:59 10° WNW 01:19:04 58° SSW 01:23:08 10° SE
STARLINK-1237 3.7 01:17:14 10° W 01:21:24 82° N 01:25:34 10° E
Cosmos 2181 Rocket 4.2 01:15:07 10° N 01:21:33 78° E 01:28:00 10° SSE
RESURS DK-1 2.5 01:19:17 17° SW 01:22:26 67° NW 01:26:35 10° NNE
Cosmos 1356 Rocket 4.2 01:19:12 10° NNW 01:22:58 35° W 01:25:49 16° SSW
SL-08 R/B 4.0 01:18:34 10° SSE 01:23:09 56° ENE 01:27:43 10° N
Cosmos 2227 Rocket 2.2 01:17:32 10° NNW 01:23:14 76° WSW 01:28:53 10° SSE
STARLINK-1218 3.7 01:19:57 10° WNW 01:24:01 55° SSW 01:28:04 10° SE
CZ-2D R/B 2.1 01:20:23 10° NNE 01:25:41 77° WNW 01:30:15 14° SSW
STARLINK-1202 3.7 01:22:13 10° WNW 01:26:23 84° N 01:30:33 10° E
Cosmos 2369 Rocket 4.3 01:23:58 10° W 01:28:09 21° NNW 01:32:21 10° NNE
ADEOS II 2.8 01:23:11 10° NNE 01:28:21 52° E 01:33:27 10° S
Cosmos 1763 Rocket 4.3 01:23:52 10° S 01:28:42 45° ESE 01:33:32 10° NE
Cosmos 1697 Rocket 4.0 01:23:59 10° S 01:29:00 34° ESE 01:34:02 10° NE
STARLINK-1254 3.7 01:24:57 10° WNW 01:29:00 52° SSW 01:33:01 10° SE
Cosmos 1703 3.9 01:26:56 10° S 01:30:47 53° E 01:34:40 10° NNE
ATLAS 2AS CENTAUR R/B 3.6 01:24:26 10° WSW 01:32:20 57° NNW 01:40:02 10° NE
STARLINK-1231 3.8 01:29:58 10° WNW 01:33:59 50° SSW 01:37:58 10° SE
Resurs 1-4 Rocket 2.3 01:30:11 10° N 01:35:25 64° WNW 01:40:11 12° SSW
STARLINK-1246 3.6 01:32:11 10° WNW 01:36:21 88° NNE 01:40:30 10° ESE
STARLINK-1234 4.5 01:34:30 10° W 01:36:34 16° SW 01:37:02 16° SSW
STARLINK-1212 4.2 01:35:39 10° W 01:38:01 20° SW 01:40:22 10° SSE
STARLINK-1105 4.2 01:36:09 10° W 01:38:29 20° SW 01:40:48 10° SSE
STARLINK-1232 3.8 01:34:57 10° WNW 01:38:57 47° SSW 01:42:55 10° SE
STARLINK-1247 4.2 01:37:03 10° W 01:39:24 20° SW 01:41:45 10° SSE
STARLINK-1227 4.2 01:37:31 10° W 01:39:50 19° SW 01:42:08 10° S
ARIANE 5 R/B 3.6 01:35:37 10° NNE 01:40:27 41° E 01:45:11 10° SSE
STARLINK-1226 4.3 01:38:23 10° W 01:40:42 19° SW 01:43:01 10° S
USA 81 4.2 01:36:19 12° SSW 01:41:11 64° W 01:46:27 10° N
STARLINK-1224 3.6 01:37:10 10° WNW 01:41:19 90° NW 01:45:29 10° ESE
STARLINK-1215 4.3 01:39:20 10° W 01:41:38 19° SW 01:43:56 10° S
STARLINK-52 3.2 01:39:41 15° SW 01:42:12 51° SSE 01:45:21 10° ENE
NPP 3.8 01:37:29 10° N 01:42:51 65° WNW 01:47:57 11° SSW
STARLINK-1217 4.3 01:41:07 10° W 01:43:23 18° SW 01:45:38 10° S
Cosmos 1758 Rocket 3.5 01:39:23 11° S 01:43:36 87° WNW 01:48:00 10° N
STARLINK-1208 3.9 01:39:55 10° WNW 01:43:52 44° SSW 01:47:49 10° SE
STARLINK-1229 4.3 01:42:04 10° W 01:44:19 18° SW 01:46:32 10° S
STARLINK-1270 4.3 01:42:56 10° W 01:45:10 18° SW 01:47:23 10° S
H-2A R/B 3.1 01:41:41 10° SE 01:45:52 50° ENE 01:50:10 10° N
STARLINK-1225 3.6 01:42:09 10° WNW 01:46:20 88° S 01:50:29 10° ESE
STARLINK-1189 4.4 01:44:49 10° W 01:46:59 17° SW 01:49:10 10° S
STARLINK-1188 4.4 01:45:43 10° W 01:47:53 17° SW 01:50:01 10° S
Cosmos 1898 Rocket 3.6 01:43:02 10° NNW 01:48:18 58° WSW 01:53:31 10° S
STARLINK-1271 4.0 01:44:55 10° WNW 01:48:51 42° SSW 01:52:46 10° SE
STARLINK-1191 4.4 01:48:15 10° W 01:50:18 16° SW 01:52:21 10° S
Lacrosse 4 Rocket 1.7 01:46:01 10° NW 01:50:26 75° NE 01:54:41 10° SE
STARLINK-1221 4.5 01:49:08 10° W 01:51:10 16° SW 01:53:12 10° S
STARLINK-1230 3.6 01:47:08 10° WNW 01:51:18 86° SSW 01:55:27 10° ESE
Starlink 7 placeholder 1.7 01:49:43 11° W 01:51:36 77° N 01:53:36 10° ENE
STARLINK-1222 4.5 01:50:03 10° W 01:52:03 16° SW 01:54:04 10° S
Meteor 1-21 Rocket 4.3 01:46:49 11° SSW 01:52:15 67° WNW 01:57:57 10° N
STARLINK-1214 4.5 01:50:59 10° W 01:52:58 16° SW 01:54:56 10° S
IDEFIX/ARIANE 42P 4.2 01:49:02 10° NNE 01:53:43 31° E 01:58:22 10° SSE
SJ 16-02 1.9 01:49:36 10° NW 01:53:46 40° WSW 01:57:55 10° S
Cosmos 2285 Rocket 4.0 01:47:22 10° NNW 01:53:48 78° WSW 02:00:08 10° SSE
STARLINK-1154 4.0 01:49:55 10° W 01:53:48 39° SSW 01:57:41 10° SE
Cosmos 1656 3.8 01:48:20 10° SSW 01:53:56 81° ESE 01:59:35 10° NNE
CZ-4C R/B 3.1 01:51:11 10° S 01:55:53 39° ESE 02:01:25 10° NE
STARLINK-1243 3.6 01:52:06 10° WNW 01:56:16 83° SSW 02:00:25 10° ESE
Cosmos 2084 3.6 01:52:18 11° SW 01:56:36 84° NW 02:01:07 10° NE
Cosmos 468 Rocket 4.0 01:52:26 10° SSW 01:57:34 86° ESE 02:02:44 10° NNE
Cosmos 1937 Rocket 3.5 01:53:24 10° NNW 01:58:35 64° WSW 02:03:47 10° S
STARLINK-1197 4.1 01:54:55 10° W 01:58:45 37° SSW 02:02:35 10° SE
Cosmos 1953 Rocket 3.7 01:55:26 10° S 01:59:54 79° E 02:04:23 10° NNE
Meteor 2-10 Rocket 4.1 01:55:25 10° NNW 02:00:24 40° W 02:05:12 10° SSW
Uosat 12 SS-18 rocket 4.1 01:56:28 10° NW 02:00:48 82° NE 02:05:14 10° SE
STARLINK-1236 3.6 01:57:05 10° WNW 02:01:15 80° SSW 02:05:24 10° ESE
COSMOS 2455 4.0 01:56:10 10° WSW 02:01:45 38° NW 02:07:22 10° NNE
Cosmos 2369 4.3 01:56:47 10° S 02:02:14 54° ESE 02:07:46 10° NE
STARLINK-1198 4.2 01:59:53 10° W 02:03:41 35° SW 02:07:28 10° SSE
Cosmos 921 Rocket 4.5 02:00:50 10° WSW 02:04:26 26° NW 02:08:07 10° N
Cosmos 1842 Rocket 4.4 02:00:11 10° N 02:04:38 56° ENE 02:09:02 10° SSE
Cosmos 1709 Rocket 4.3 02:02:05 10° SSW 02:08:01 52° WNW 02:14:02 10° N
STARLINK-1199 4.3 02:04:56 10° W 02:08:40 33° SW 02:12:23 10° SSE
Iridium 2 4.1 02:06:08 10° N 02:09:53 66° E 02:13:37 10° SSE
STARLINK-1269 3.6 02:07:02 10° WNW 02:11:11 75° SSW 02:15:19 10° ESE
USA 129 4.4 02:10:56 10° ENE 02:12:04 13° E 02:13:03 10° ESE
STARLINK-60 3.0 02:09:59 10° W 02:13:11 81° N 02:16:25 10° ENE
STARLINK-1210 4.4 02:09:55 10° W 02:13:36 31° SW 02:17:16 10° SSE
Cosmos 2219 4.3 02:11:08 10° NW 02:15:38 25° WSW 02:20:04 10° SSW
STARLINK-1200 3.6 02:12:02 10° WNW 02:16:11 72° SSW 02:20:18 10° ESE
STARLINK-1320 3.6 02:15:06 10° SW 02:18:03 39° SSE 02:21:00 10° E
STARLINK-1322 3.6 02:15:26 10° SW 02:18:23 39° SSE 02:21:20 10° E
STARLINK-1219 4.4 02:14:56 10° W 02:18:32 29° SW 02:22:09 10° SSE
STARLINK-1324 3.6 02:15:47 10° SW 02:18:44 40° SSE 02:21:42 10° E
STARLINK-1294 3.6 02:16:03 10° SW 02:19:01 40° SSE 02:22:00 10° E
Nadezhda 3 Rocket 4.4 02:12:44 10° N 02:19:01 74° ENE 02:25:20 10° SSE
STARLINK-1261 3.6 02:16:26 10° SW 02:19:23 40° SSE 02:22:21 10° E
STARLINK-1325 3.6 02:16:48 10° SW 02:19:45 40° SSE 02:22:43 10° E
STARLINK-1192 3.6 02:17:01 10° WNW 02:21:09 69° SSW 02:25:16 10° ESE
Cosmos 1980 Rocket 3.1 02:15:53 10° S 02:21:10 45° ESE 02:26:32 10° NE
